Wind_Speed
2 3 3 3 4 4 4 4 4 5 4 4 5 5 5 5 6 6 6 6 5 5 5 5 5 5 5 4 4 5 5 5 5 5 5 4 5 5 5 5 5 5 5 5 5 6 5 5 5
3 3 4 5 5 5 5 5 5 5 5 6 6 6 6 6 6 7 7 7 7 6 6 6 6 5 5 5 5 5 5 5 5 6 6 5 5 6 6 6 6 6 6 6 6 6 6 7 7
3 4 4 5 6 6 6 6 5 6 6 7 7 8 7 7 8 8 8 8 8 7 6 6 6 6 6 6 5 5 5 5 5 6 6 6 6 6 7 7 8 8 8 8 7 7 7 8 8
4 5 5 5 6 6 6 6 6 6 7 7 8 8 8 9 9 9 8 8 8 8 8 8 8 7 7 7 7 6 6 6 6 6 7 7 7 7 7 8 8 8 8 8 8 8 8 8 8
5 5 5 6 6 6 7 7 7 7 7 8 8 8 9 9 9 9 9 9 9 9 8 9 9 8 8 8 8 8 8 7 7 8 9 9 8 8 9 9 9 9 9 9 9 9 9 9 9
5 5 5 5 6 6 7 7 7 7 7 8 8 8 8 8 9 9 9 9 9 9 9 9 9 9 9 9 9 9 9 9 9 9 9 9 9 9 9 9 9 10 10 10 10 10 10 10 11
5 5 5 5 6 6 7 7 7 8 8 8 8 8 8 8 8 9 9 9 9 9 9 9 9 9 9 10 10 9 9 9 9 9 10 9 9 9 10 10 11 11 11 11 11 11 10 11 11
5 5 5 5 6 6 6 7 8 8 8 8 8 8 8 8 8 9 9 9 9 9 8 8 9 9 9 10 9 9 9 9 9 10 10 10 10 10 10 10 11 11 12 12 12 12 12 12 12
5 5 6 6 7 6 6 7 8 8 8 8 7 7 8 8 8 9 9 8 8 8 8 8 8 8 8 9 9 9 9 9 9 10 10 11 11 10 10 10 11 12 13 13 13 12 13 13 13
6 6 6 7 7 7 7 7 7 8 7 7 7 7 7 7 8 8 8 8 8 8 8 8 8 8 8 9 9 9 9 9 9 10 10 10 11 11 11 12 13 13 14 14 14 14 14 14 14
6 6 7 8 8 7 8 8 8 8 7 7 7 7 7 7 7 7 8 8 8 8 8 8 8 9 9 9 9 10 10 10 11 11 11 11 11 12 13 13 14 14 15 15 15 15 15 15 16
7 7 7 8 8 8 8 8 8 8 7 7 7 7 7 7 7 7 7 7 7 8 8 8 9 9 10 10 10 11 11 12 12 12 12 13 13 13 14 14 15 15 16 16 15 16 16 17 17
7 7 7 8 8 8 8 8 8 8 7 7 7 7 7 8 7 7 7 7 8 8 9 9 9 10 10 11 11 12 12 13 13 13 14 14 14 15 15 15 15 16 16 16 16 17 17 17 17
7 7 7 8 8 9 9 8 8 8 8 7 7 8 8 8 8 8 8 8 8 9 9 9 10 10 11 11 12 12 12 13 13 14 14 15 14 15 15 15 16 16 16 16 17 17 17 17 18
7 8 7 7 8 8 9 9 9 9 9 8 8 8 9 9 9 9 9 9 9 9 9 10 10 11 11 11 12 12 13 13 13 14 15 15 15 15 15 15 16 16 16 16 17 18 18 18 18
7 7 7 7 8 9 9 9 9 9 9 10 10 9 9 9 9 9 9 10 10 10 10 11 11 11 11 12 12 12 13 13 14 14 15 15 15 15 15 16 16 17 17 17 18 18 19 19 19
7 8 8 8 8 9 10 9 9 9 10 10 11 10 10 10 10 10 10 11 11 11 11 11 12 12 12 12 12 13 13 14 14 15 15 15 15 15 16 16 17 17 18 18 18 18 19 19 19
7 8 9 10 9 10 10 10 10 10 11 11 11 11 11 11 11 11 11 11 11 11 11 12 12 12 12 13 13 13 13 14 14 15 15 15 15 15 16 17 17 18 18 18 18 18 19 19 19
9 9 11 11 11 12 11 11 11 12 11 12 12 12 12 12 12 12 12 12 12 12 12 12 12 13 13 13 13 13 14 14 14 14 14 14 15 16 16 16 17 17 17 18 18 18 19 19 19
10 10 12 12 12 13 13 13 13 12 12 13 13 12 13 13 12 13 13 13 13 13 12 12 12 12 13 13 14 14 14 14 14 14 14 14 15 15 15 16 16 17 17 18 18 18 18 18 19
12 12 12 12 13 13 13 13 13 13 13 13 14 14 14 14 14 14 14 13 13 13 13 13 13 13 13 13 13 13 13 13 13 14 14 14 14 15 16 16 16 16 17 17 17 18 18 18 18
12 12 13 12 13 12 13 13 12 14 14 14 14 15 15 15 15 14 14 14 13 13 13 13 13 13 13 13 13 13 13 13 13 13 14 14 15 15 15 16 16 16 16 17 17 17 17 17 17
11 12 13 12 13 12 12 14 13 13 14 14 14 15 16 15 15 15 14 14 14 14 14 14 14 13 13 13 13 13 13 13 13 13 13 14 14 15 15 16 17 17 16 17 17 16 16 16 16
11 11 12 12 13 13 12 15 14 14 14 15 15 15 16 16 16 16 16 15 15 15 15 15 15 15 15 14 14 14 14 13 13 14 14 14 14 15 16 16 17 17 17 17 17 16 16 17 17
12 12 12 12 12 12 12 14 15 15 16 16 16 16 17 17 17 17 17 16 16 16 16 16 16 16 16 16 16 15 15 15 15 15 15 15 16 16 17 17 18 18 18 18 18 17 17 17 18
12 12 12 12 13 14 14 15 15 16 17 17 17 17 18 18 18 18 18 18 17 17 17 17 18 17 17 17 17 17 16 16 17 17 17 17 17 18 18 18 18 18 18 18 18 18 18 18 18
14 13 13 14 13 14 15 16 16 17 18 18 17 17 19 19 19 19 19 18 18 19 19 19 18 18 18 18 18 18 17 17 18 18 18 18 18 18 19 19 19 19 19 19 19 19 19 18 19
15 14 14 15 16 15 16 17 17 16 19 19 19 19 19 19 19 19 19 19 20 20 20 20 19 19 19 18 18 18 18 18 18 18 19 19 19 19 20 20 20 20 20 20 20 19 19 19 19
16 16 16 17 17 17 18 19 18 19 19 20 20 20 19 18 19 19 19 19 20 21 21 22 21 20 20 19 19 19 19 19 19 20 20 20 20 20 21 21 21 21 21 21 21 20 20 20 20
18 18 19 19 18 19 20 20 19 20 21 20 20 20 20 20 19 19 20 20 21 20 21 21 22 22 21 21 21 20 20 20 20 21 21 20 20 21 21 22 22 22 21 21 21 21 21 21 22
Wind_Direction
247 237 226 231 239 238 239 250 248 245 246 248 247 245 247 248 247 247 239 237 238 241 247 251 248 252 256 258 262 262 260 255 253 253 248 249 250 251 251 258 265 270 271 263 259 257 251 248 243
253 249 243 244 246 247 250 256 253 250 250 251 248 250 250 252 255 253 249 248 249 250 250 251 247 252 255 256 264 266 264 258 254 250 244 251 256 256 256 259 263 266 270 270 273 273 268 264 258
258 254 254 253 253 250 251 255 254 250 250 252 252 251 251 253 256 256 254 253 254 253 250 249 248 254 256 258 259 259 260 262 255 251 250 255 260 262 263 263 263 265 268 271 274 278 278 272 265
255 254 254 255 257 256 255 256 254 254 255 255 256 254 254 253 253 253 254 256 254 251 252 252 255 258 258 257 255 259 264 261 261 261 263 262 262 264 268 269 265 266 269 272 275 276 275 272 264
251 255 258 256 258 257 254 252 252 252 253 256 258 256 254 253 253 255 255 255 254 255 258 257 256 256 260 260 258 262 263 266 267 267 267 271 267 266 269 272 268 267 270 272 276 277 274 269 264
255 253 259 258 256 256 253 252 251 250 254 254 255 255 255 256 255 254 256 256 255 254 256 258 261 262 262 263 263 263 263 264 266 271 275 277 274 272 270 272 271 271 271 272 273 275 276 273 267
255 258 259 259 256 253 253 256 257 257 257 258 257 256 258 258 258 256 257 257 257 256 256 256 257 259 260 263 263 263 265 267 269 271 273 275 275 275 272 269 271 273 274 274 273 273 276 274 270
264 260 258 260 261 260 257 257 260 259 259 261 256 255 256 256 258 259 258 258 256 254 255 255 254 256 259 260 261 262 266 269 270 272 273 274 272 274 274 268 269 270 274 275 273 272 273 273 272
269 262 262 265 265 267 262 259 261 263 263 258 255 255 256 256 257 259 258 257 257 256 257 256 255 257 260 259 260 264 267 269 271 270 273 274 272 272 272 270 270 271 273 275 273 273 274 273 272
273 267 265 266 266 267 266 263 265 265 262 257 256 255 258 259 260 259 258 255 257 259 259 258 258 261 262 263 264 267 270 271 276 277 278 279 277 275 273 273 271 271 271 272 272 272 274 274 275
271 267 262 260 265 265 266 264 265 266 265 262 257 255 256 258 261 260 258 255 257 260 261 261 261 262 264 266 267 270 272 273 276 278 279 280 280 278 275 275 275 275 275 274 273 273 272 272 273
273 272 266 260 262 264 268 267 268 269 270 265 261 257 256 259 264 265 262 260 259 262 265 266 267 267 267 268 270 271 272 276 278 279 281 282 282 282 277 276 276 275 276 275 273 273 273 273 273
271 269 265 263 263 265 267 266 267 268 270 267 262 259 260 264 269 269 266 264 265 266 268 271 272 272 271 271 272 274 276 279 280 283 284 285 285 284 281 281 279 278 277 276 275 275 274 273 274
270 266 264 263 266 264 265 265 265 265 265 266 266 263 260 263 268 269 268 267 270 272 273 275 277 276 275 275 276 278 281 282 283 284 286 286 285 285 282 282 284 284 281 280 279 278 276 276 276
268 266 268 265 268 269 267 265 264 262 264 265 266 265 263 264 267 268 269 270 274 277 278 278 280 278 278 279 280 281 282 284 286 286 288 287 286 287 286 283 284 284 282 281 281 280 278 276 275
268 270 270 272 272 275 271 267 266 265 266 266 265 266 265 265 267 270 273 275 276 278 279 280 281 282 280 282 283 284 284 285 286 287 287 287 287 287 288 286 286 284 282 282 282 280 278 277 275
271 276 279 280 271 271 273 272 270 268 267 268 267 265 266 267 268 270 273 277 280 281 280 281 283 283 282 282 283 283 284 285 286 288 288 288 288 288 288 288 288 287 285 284 284 282 279 277 276
269 272 272 277 278 276 276 277 271 269 269 269 268 269 269 269 270 271 272 277 281 283 282 282 283 283 283 282 281 282 283 285 287 288 289 289 290 290 290 290 289 288 286 285 285 283 280 278 276
262 262 264 268 273 275 275 276 274 272 269 269 270 268 268 270 273 272 272 276 279 281 284 285 284 282 283 282 281 283 284 285 287 287 288 290 292 292 291 290 290 290 288 286 285 284 281 278 277
261 261 263 264 268 272 273 273 273 274 271 270 271 268 271 270 270 271 272 273 276 279 281 283 283 283 284 284 285 286 286 286 287 288 290 292 293 293 293 293 292 292 291 288 287 285 283 280 278
260 262 263 263 265 270 274 273 272 274 273 271 271 271 271 270 267 268 270 271 273 275 278 281 282 282 282 285 287 288 288 288 289 289 290 292 293 294 295 295 295 294 293 292 292 288 283 281 279
262 264 264 263 264 268 272 272 272 273 272 273 273 272 273 272 269 266 266 269 272 275 277 279 282 283 282 283 285 286 288 290 291 292 292 292 293 295 296 298 299 300 298 297 294 291 286 283 281
270 268 265 266 268 269 270 273 272 275 277 275 275 273 274 272 271 268 267 269 271 274 276 277 279 280 280 282 283 285 287 289 292 294 295 295 296 295 297 299 300 300 299 300 296 292 289 286 284
272 267 266 265 266 270 274 277 279 279 279 277 276 273 272 273 270 268 269 268 270 273 275 276 277 278 278 280 281 283 285 288 291 293 294 297 299 298 297 297 299 299 298 298 296 293 291 288 284
267 265 264 267 270 278 279 277 277 278 279 279 277 276 273 273 271 270 267 266 271 275 277 276 276 275 275 276 278 280 283 285 288 290 292 295 298 298 298 297 299 300 299 297 295 293 292 290 286
268 262 260 264 271 277 276 277 281 282 281 282 280 279 277 275 272 269 269 269 272 274 275 276 276 276 275 275 276 277 280 283 286 287 290 292 295 296 297 297 298 298 298 297 294 293 293 292 289
268 263 260 262 264 270 273 274 276 278 280 282 281 280 279 278 274 272 271 271 269 271 273 273 274 276 276 275 276 278 280 283 285 286 289 292 293 294 296 296 297 298 297 296 295 293 291 291 290
266 263 261 262 265 265 268 273 279 279 279 282 282 281 280 279 277 277 276 274 273 272 271 271 273 275 277 277 275 274 278 282 284 286 288 291 291 292 294 295 296 296 295 293 293 292 292 291 291
266 263 260 261 263 267 269 271 278 280 280 280 283 283 280 280 279 278 275 275 275 275 272 269 270 271 274 276 276 276 278 281 284 286 287 289 290 291 293 295 295 295 295 294 293 292 291 289 289
266 263 261 262 263 266 270 272 274 276 279 278 279 280 280 279 278 276 275 275 276 277 276 271 269 270 272 274 276 277 279 280 282 286 286 287 289 291 292 293 293 294 294 293 292 292 291 290 289
Height
5853 5853 5854 5855 5856 5856 5855 5856 5856 5856 5857 5857 5858 5858 5859 5860 5861 5864 5862 5861 5862 5863 5863 5864 5864 5864 5865 5865 5865 5865 5866 5866 5866 5866 5867 5867 5867 5868 5869 5869 5869 5869 5870 5870 5870 5871 5871 5871 5871
5853 5853 5854 5855 5855 5854 5855 5855 5856 5856 5857 5857 5857 5858 5858 5859 5860 5860 5860 5860 5861 5862 5862 5863 5863 5864 5864 5864 5865 5865 5865 5865 5865 5865 5866 5866 5866 5867 5868 5868 5869 5869 5869 5869 5870 5870 5870 5870 5870
5852 5852 5854 5854 5853 5854 5854 5854 5855 5855 5856 5856 5857 5857 5858 5859 5859 5859 5859 5860 5861 5861 5861 5862 5862 5863 5863 5864 5864 5864 5864 5864 5864 5865 5865 5865 5866 5866 5867 5867 5868 5868 5868 5868 5869 5869 5869 5869 5869
5851 5852 5853 5853 5852 5852 5853 5853 5854 5854 5855 5855 5856 5857 5857 5857 5858 5858 5858 5859 5860 5860 5860 5861 5861 5862 5862 5862 5863 5863 5863 5863 5864 5864 5864 5865 5865 5865 5865 5866 5866 5867 5867 5867 5867 5868 5868 5867 5867
5850 5851 5852 5851 5851 5851 5852 5852 5853 5853 5854 5854 5855 5855 5855 5856 5856 5857 5857 5858 5858 5859 5859 5859 5860 5860 5861 5861 5862 5862 5862 5862 5863 5863 5863 5863 5864 5864 5864 5865 5865 5865 5865 5866 5866 5866 5866 5866 5866
5850 5850 5850 5850 5850 5850 5850 5851 5852 5852 5852 5853 5853 5854 5854 5855 5855 5855 5855 5856 5857 5857 5857 5858 5858 5859 5859 5860 5860 5860 5861 5861 5861 5861 5862 5862 5862 5863 5863 5863 5863 5864 5864 5864 5864 5865 5865 5865 5865
5849 5849 5849 5849 5849 5849 5850 5850 5851 5851 5851 5852 5852 5853 5853 5853 5853 5854 5854 5855 5855 5855 5856 5856 5857 5857 5858 5858 5859 5859 5859 5859 5860 5860 5860 5860 5861 5861 5861 5861 5862 5862 5862 5863 5863 5863 5863 5863 5863
5847 5848 5848 5848 5848 5848 5849 5849 5849 5850 5850 5850 5851 5851 5852 5852 5852 5852 5853 5853 5853 5854 5854 5855 5855 5856 5856 5856 5857 5857 5858 5858 5858 5858 5859 5859 5859 5859 5859 5860 5860 5860 5860 5860 5861 5861 5861 5861 5861
5846 5848 5847 5847 5847 5847 5847 5848 5848 5848 5849 5849 5849 5850 5850 5851 5851 5851 5851 5852 5852 5852 5853 5853 5854 5854 5854 5855 5855 5855 5856 5856 5856 5856 5857 5857 5857 5857 5858 5858 5858 5858 5858 5858 5858 5858 5859 5859 5859
5846 5846 5846 5846 5846 5846 5846 5847 5847 5847 5847 5848 5848 5848 5849 5849 5849 5850 5850 5850 5851 5851 5851 5852 5852 5852 5853 5853 5853 5854 5854 5854 5854 5854 5855 5855 5855 5855 5855 5856 5856 5856 5856 5856 5856 5856 5856 5856 5857
5844 5845 5844 5844 5844 5845 5845 5845 5845 5846 5846 5847 5847 5847 5847 5848 5848 5848 5848 5849 5849 5849 5850 5850 5850 5851 5851 5851 5852 5852 5852 5852 5852 5852 5852 5852 5853 5853 5853 5853 5853 5853 5853 5853 5853 5853 5853 5854 5854
5843 5843 5843 5843 5843 5844 5844 5844 5844 5844 5845 5845 5846 5846 5846 5846 5847 5847 5847 5847 5848 5848 5848 5849 5849 5849 5849 5849 5850 5850 5850 5850 5850 5850 5850 5850 5850 5850 5850 5850 5850 5850 5850 5850 5850 5850 5850 5851 5851
5841 5841 5841 5841 5842 5842 5842 5843 5843 5843 5844 5844 5844 5845 5845 5845 5845 5845 5845 5846 5846 5846 5847 5847 5847 5847 5847 5847 5847 5848 5848 5848 5848 5847 5847 5847 5847 5847 5847 5847 5846 5846 5846 5847 5847 5847 5847 5847 5847
5839 5839 5840 5840 5840 5840 5841 5841 5842 5842 5842 5843 5843 5843 5843 5844 5844 5844 5844 5844 5844 5845 5845 5845 5845 5845 5845 5845 5845 5845 5845 5845 5845 5845 5845 5844 5844 5844 5844 5843 5843 5843 5843 5843 5843 5843 5843 5844 5844
5837 5838 5838 5838 5838 5839 5839 5840 5840 5840 5840 5841 5841 5842 5842 5842 5842 5842 5842 5843 5843 5843 5843 5843 5842 5842 5842 5842 5842 5842 5842 5842 5842 5842 5842 5841 5841 5840 5840 5840 5840 5839 5839 5839 5839 5839 5839 5840 5840
5835 5836 5837 5837 5837 5837 5839 5839 5838 5838 5839 5839 5839 5840 5840 5841 5841 5841 5841 5841 5841 5841 5841 5840 5840 5840 5840 5840 5840 5839 5839 5839 5839 5839 5838 5838 5838 5837 5837 5837 5836 5836 5836 5835 5835 5835 5835 5835 5836
5834 5834 5835 5835 5835 5835 5836 5836 5836 5836 5836 5837 5837 5838 5838 5839 5839 5839 5839 5839 5839 5839 5838 5838 5838 5838 5837 5837 5837 5837 5837 5836 5836 5835 5835 5835 5834 5834 5834 5833 5833 5832 5832 5831 5831 5831 5831 5831 5831
5832 5833 5833 5833 5833 5833 5833 5834 5834 5834 5834 5834 5834 5835 5836 5836 5837 5837 5837 5837 5837 5836 5836 5836 5835 5835 5835 5834 5834 5834 5834 5833 5833 5832 5832 5832 5831 5831 5830 5830 5829 5829 5828 5828 5827 5827 5826 5826 5827
5830 5831 5831 5831 5831 5831 5831 5831 5832 5832 5832 5832 5833 5833 5833 5833 5834 5834 5834 5834 5834 5834 5834 5833 5833 5832 5832 5832 5831 5831 5831 5830 5830 5829 5829 5828 5828 5827 5827 5826 5825 5825 5824 5823 5823 5822 5822 5822 5822
5828 5828 5828 5829 5829 5828 5829 5829 5829 5829 5829 5830 5830 5830 5830 5830 5831 5831 5831 5831 5832 5831 5831 5831 5830 5830 5829 5829 5828 5828 5828 5827 5827 5826 5826 5825 5824 5824 5823 5822 5822 5821 5820 5819 5819 5818 5818 5817 5817
5825 5825 5826 5826 5826 5826 5826 5826 5826 5827 5827 5827 5827 5827 5827 5827 5828 5828 5828 5828 5829 5829 5828 5828 5828 5827 5826 5826 5825 5825 5824 5824 5823 5823 5822 5822 5821 5820 5820 5819 5818 5817 5816 5815 5814 5814 5813 5813 5813
5822 5822 5823 5823 5823 5823 5824 5823 5824 5823 5824 5824 5824 5824 5824 5824 5824 5825 5825 5825 5825 5825 5825 5825 5825 5824 5823 5823 5822 5822 5821 5821 5821 5820 5819 5819 5818 5817 5817 5816 5815 5814 5813 5811 5810 5809 5809 5808 5808
5819 5819 5819 5820 5820 5821 5821 5821 5821 5820 5821 5821 5821 5821 5820 5821 5821 5821 5821 5822 5822 5822 5822 5822 5821 5821 5820 5820 5819 5819 5819 5818 5818 5817 5816 5816 5815 5814 5813 5813 5811 5810 5809 5808 5806 5805 5804 5804 5804
5816 5816 5816 5817 5817 5818 5819 5819 5818 5818 5818 5818 5817 5817 5817 5817 5817 5817 5818 5818 5819 5819 5819 5818 5818 5817 5817 5816 5816 5816 5815 5815 5814 5814 5813 5813 5812 5811 5810 5809 5808 5806 5805 5804 5803 5802 5801 5800 5800
5813 5813 5814 5814 5814 5815 5816 5815 5816 5815 5815 5815 5814 5814 5813 5813 5813 5814 5814 5815 5815 5815 5815 5814 5814 5813 5813 5813 5812 5812 5812 5812 5811 5811 5810 5809 5809 5808 5806 5805 5804 5803 5801 5800 5799 5798 5797 5796 5795
5809 5810 5811 5812 5812 5812 5812 5812 5813 5812 5812 5811 5811 5810 5810 5809 5809 5810 5810 5811 5811 5811 5810 5810 5810 5809 5809 5809 5809 5808 5808 5808 5808 5807 5806 5806 5805 5804 5803 5801 5800 5799 5797 5796 5795 5794 5793 5792 5791
5806 5806 5808 5808 5808 5809 5808 5808 5809 5808 5808 5807 5807 5807 5806 5806 5806 5806 5806 5806 5806 5806 5806 5806 5805 5805 5805 5804 5804 5804 5804 5804 5803 5803 5802 5801 5800 5800 5799 5797 5796 5794 5793 5792 5790 5790 5789 5788 5787
5803 5804 5804 5804 5804 5805 5805 5805 5805 5805 5804 5803 5803 5803 5803 5802 5801 5801 5801 5801 5801 5801 5801 5801 5801 5801 5800 5800 5800 5800 5799 5799 5799 5798 5798 5797 5796 5795 5794 5793 5791 5790 5789 5788 5786 5785 5784 5784 5783
5799 5799 5799 5799 5800 5801 5801 5803 5802 5801 5800 5799 5799 5798 5798 5797 5797 5797 5797 5796 5796 5796 5796 5795 5795 5796 5796 5795 5795 5795 5795 5795 5794 5793 5793 5792 5791 5790 5789 5788 5787 5785 5784 5783 5782 5781 5780 5779 5778
5794 5794 5795 5796 5796 5796 5796 5799 5797 5796 5795 5795 5794 5793 5793 5792 5792 5792 5791 5791 5791 5790 5790 5790 5790 5790 5790 5790 5790 5790 5790 5790 5789 5788 5788 5787 5786 5785 5784 5783 5782 5780 5779 5778 5777 5776 5775 5774 5773